Location: Boone Canyon
(38.3180°N, 119.2504°W)
Time: 18:13:03
(UTC+00:00)

IRIDIUM 114 - Pass Details

Date: 18 September 2020
Orbit: 776 x 779 km, 86.4° (Epoch: 19 October)

Event Time Altitude Azimuth Distance (km) Brightness Sun altitude
Rises 12:11:36 0° 356° (N) 3,267 7.7 -18.2°
Reaches altitude 10° 12:13:57 10° 355° (N) 2,334 6.9 -17.8°
Maximum altitude 12:19:11 81° 269° (W) 792 4.2 -16.8°
Drops below altitude 10° 12:24:22 10° 183° (S) 2,316 6.6 -15.8°
Sets 12:26:42 0° 182° (S) 3,239 7.4 -15.4°
